Location: Miles
(41.4492°N, 81.6087°W)
Time: 23:36:55
(UTC+00:00)

Explorer 11/Cluster Stage 4 - Pass Details

Date: 22 September 2024
Orbit: 464 x 1208 km, 28.8° (Epoch: 06 October)

Event Time Altitude Azimuth Distance (km) Brightness Sun altitude
Exits shadow 10:02:17 12° 213° (SSW) 2,034 8.3 -14.2°
Maximum altitude 10:05:32 20° 170° (S) 1,704 8.3 -13.6°
Drops below altitude 10° 10:09:48 10° 124° (SE) 2,510 9.8 -12.9°
Sets 10:13:17 0° 109° (ESE) 3,609 11.1 -12.2°
